SCP
0 0 0 0 0 0 0 0 0 0 0 0 0 0 0 0 0 0 0 0 0 0 0 0 0 0 0 0 0 0 0 0 0 0 0 0 0 0 0 0 0 0 0
0 0 0 0 0 0 0 0 0 0 0 0 0 0 0 0 0 0 0 0 0 0 0 0 0 0 0 0 0 0 0 0 0 0 0 0 0 0 0 0 0 0 0
0 0 0 0 0 0 0 0 0 0 0 0 0 0 0 0 0 0 0 0 0 0 0 0 0 0 0 0 0 0 0 0 0 0 0 0 0 0 0 0 0 0 0
0 0 0 0 0 0 0 0 0 0 0 0 0 0 0 0 0 0 0 0 0 0 0 0 0 0 0 0 0 0 0 0 0 0 0 0 0 0 0 0 0 0 0
0 0 0 0 0 0 0 0 0 0 0 0 0 0 0 0 0 0 0 0 0 0 0 0 0 0 0 0 0 0 0 0 0 0 0 0 0 0 0 0 0 0 0
0 0 0 0 0 0 0 0 0 0 0 0 0 0 0 0 0 0 0 0 0 0 0 0 0 0 0 0 0 0 0 0 0 0 0 0 0 0 0 0 0 0 0
0 0 0 0 0 0 0 0 0 0 0 0 0 0 0 0 0 0 0 0 0 0 0 0 0 0 0 0 0 0 0 0 0 0 0 0 0 0 0 0 0 0 0
0 0 0 0 0 0 0 0 0 0 0 0 0 0 0 0 0 0 0 0 0 0 0 0 0 0 0 0 0 0 0 0 0 0 0 0 0 0 0 0 0 0 0
0 0 0 0 0 0 0 0 0 0 0 0 0 0 0 0 0 0 0 0 0 0 0 0 0 0 0 0 0 0 0 0 0 0 0 0 0 0 0 0 0 0 0
0 0 0 0 0 0 0 0 0 0 0 0 0 0 0 0 0 0 0 0 0 0 0 0 0 0 0 0 0 0 0 0 0 0 0 0 0 0 0 0 0 0 0
0 0 0 0 0 0 0 0 0 0 0 0 0 0 0 0 0 0 0 0 0 0 0 0 0 0 0 0 0 0 0 0 0 -0 -0 -0 0 0 0 0 0 0 0
0 0 0 0 0 0 0 0 0 0 0 0 0 0 0 0 0 0 0 0 0 -0 -0 -0 0 -0 0 0 -0 -0 0 -0 -0 -0 -0 -0 -0 -0 -0 0 0 0 0
0 0 0 0 0 0 0 0 0 0 0 0 0 0 0 0 0 0 0 -0 -0 -0 -0 0 0 0 0 0 -0 -0 0 0 0 -0 0 0 -0 -0 -0 -0 -0 0 0
0 0 0 0 0 0 0 0 0 0 0 0 0 0 0 0 0 0 -0 -0 -0 -0 0 -0 0 0 -0 -0 -0 0 0 0 -0 -0 0 -0 -0 0 0 0 0 0 0
0 0 0 0 0 0 0 0 0 0 0 0 0 0 0 0 0 -0 -0 0 -0 -0 -0 -0 -0 -0 0 0 0 0 0 0 0 0 0 0 -0 -0 0 -0 -0 0 0
0 0 0 0 0 0 0 0 0 0 0 0 0 0 0 0 -0 0 -0 -0 0 -0 0 -0 0 0 0 0 0 0 0 0 0 0 0 0 0 -0 0 0 0 0 -0
0 0 0 0 0 0 0 0 0 0 0 0 0 0 0 0 -0 0 -0 -0 -0 -0 -0 0 0 0 0 0 -0 -0 -0 -0 -0 -0 0 0 0 -0 0 -0 -0 -0 0
0 0 0 0 0 0 0 0 0 0 0 0 0 0 0 0 -0 0 0 0 -0 0 0 0 -0 -0 -0 -0 -0 -0 -0 -0 -0 -0 -0 -0 0 0 -0 -0 -0 -0 -0
0 0 0 0 0 0 0 0 0 0 0 0 0 0 0 0 -0 -0 0 0 0 0 0 0 -0 -0 -0 -0 -0 -0 -0 -0 -0 -0 -0 -0 -0 -0 0 0 0 -0 -0
0 0 0 0 0 0 0 0 0 0 0 0 0 0 0 0 -0 -0 -0 -0 0 0 0 0 -0 -0 -0 -0 -0 -0 -0 -0 -0 -0 -0 -0 -0 -0 -0 -0 0 0 0
0 0 0 0 0 0 0 0 0 0 0 0 0 0 0 0 -0 -0 -0 -0 -0 -0 -0 -0 -0 -0 -0 -0 -0 -0 -0 -0 -0 -0 -0 -0 -0 -0 -0 0 0 0 0
0 0 0 0 0 0 0 0 0 0 0 0 0 0 0 0 0 -0 -0 -0 -0 -0 -0 0 0 0 0 0 0 0 0 -0 -0 0 0 0 0 0 0 0 0 0 0
0 0 0 0 0 0 0 0 0 0 0 0 0 0 0 0 0 0 -0 -0 -0 -0 -0 -0 0 0 0 0 0 0 0 0 0 0 0 0 0 0 0 0 0 0 0
0 0 0 0 0 0 0 0 0 0 0 0 0 0 0 0 0 0 0 -0 -0 -0 -0 -0 -0 0 0 0 0 0 0 0 0 0 0 0 0 0 0 0 0 0 0
0 0 0 0 0 0 0 0 0 0 0 0 0 0 0 0 0 0 0 0 0 -0 -0 -0 -0 -0 0 0 0 0 0 0 0 0 0 0 0 0 0 0 0 0 0
0 0 0 0 0 0 0 0 0 0 0 0 0 0 0 0 0 0 0 0 0 0 0 -0 -0 -0 -0 0 0 0 0 0 0 0 0 0 0 0 0 0 0 0 0
Wind_Speed_500mb
28 31 36 32 34 36 40 41 41 43 42 44 49 45 42 48 55 47 34 37 39 35 35 36 37 35 37 37 37 39 42 43 48 47 41 38 38 40 42 41 39 39 41
25 31 34 33 36 39 38 40 39 37 35 39 46 52 49 40 38 40 39 36 37 38 39 41 43 44 45 43 43 43 45 43 46 51 47 46 44 42 43 44 44 42 43
27 30 33 34 36 33 34 35 35 35 39 41 44 43 45 46 45 43 43 43 41 43 46 48 48 47 47 44 42 43 41 42 43 48 50 47 48 47 47 46 47 47 47
32 32 36 33 28 30 32 33 37 38 41 42 41 42 40 42 44 44 35 39 46 48 48 47 46 46 47 45 43 42 42 43 45 50 54 54 52 50 50 51 52 50 50
38 39 38 29 29 32 33 36 38 39 40 39 40 41 42 43 43 41 46 46 45 48 51 52 53 50 52 58 58 58 50 47 48 52 56 57 55 50 50 48 49 47 46
39 42 38 34 33 33 34 36 39 39 39 40 43 44 43 42 49 55 59 62 55 51 51 53 54 54 52 49 46 53 61 50 49 51 57 57 51 48 43 45 43 43 47
44 43 41 36 33 33 34 38 39 41 42 44 45 43 42 43 51 59 69 71 55 52 51 52 52 51 52 50 50 51 46 47 51 49 56 56 53 49 46 45 45 44 44
47 45 42 34 37 35 36 40 41 43 44 45 43 41 43 45 55 66 72 65 50 50 50 50 50 50 49 50 43 44 48 47 44 45 48 50 48 46 46 49 50 50 47
49 44 36 40 36 36 38 41 43 45 46 45 40 43 49 52 53 60 65 53 46 48 45 44 45 48 50 56 50 47 47 45 43 48 51 56 58 57 58 53 51 44 48
42 40 38 34 36 34 39 43 44 47 46 44 43 47 51 52 48 55 54 54 49 46 44 45 45 46 46 42 44 46 47 41 40 46 44 44 40 45 49 59 56 60 61
32 30 35 36 34 35 39 43 46 47 45 41 55 52 47 42 48 47 51 50 46 52 48 46 42 42 37 35 39 47 49 52 52 47 45 44 44 48 50 46 53 57 62
25 30 35 35 32 36 40 43 44 45 37 41 47 49 43 46 40 43 50 48 49 50 45 40 37 37 48 53 49 39 38 41 34 29 32 33 33 32 36 42 45 52 57
29 33 34 32 33 35 37 42 43 36 35 38 41 45 44 44 41 43 50 49 48 40 37 41 37 38 40 22 24 29 17 14 22 25 24 25 26 28 31 37 43 45 50
36 34 34 31 32 32 34 35 32 32 32 33 38 38 41 41 40 43 48 49 44 41 37 24 32 27 18 21 22 16 14 16 19 19 22 22 20 19 24 29 30 30 35
31 31 29 25 26 31 30 27 29 27 41 47 36 35 38 40 40 46 45 45 41 39 26 26 24 23 21 22 20 17 14 15 16 19 19 20 19 17 17 19 19 19 24
28 26 24 26 25 24 23 24 33 37 42 48 45 47 53 34 39 39 40 37 33 28 21 24 25 26 28 27 26 24 22 22 20 19 18 19 20 14 18 16 15 13 15
32 25 22 22 20 17 21 25 26 26 37 43 44 52 56 52 36 34 35 29 28 23 21 24 27 31 30 29 30 28 27 28 25 21 19 20 19 16 15 12 12 13 15
32 23 22 17 17 18 21 21 20 23 27 27 36 44 47 51 41 34 33 24 23 23 22 26 28 27 27 26 28 30 29 28 26 25 23 19 18 17 18 16 14 17 12
28 19 22 17 19 21 20 21 20 22 24 27 29 28 36 35 36 36 32 22 23 24 24 23 25 25 25 25 26 26 30 29 27 23 23 23 21 18 18 19 16 15 12
21 32 18 14 16 19 20 19 17 20 21 24 26 29 30 29 26 25 26 24 21 20 21 21 22 23 24 24 25 24 27 29 30 26 24 26 24 20 19 18 19 17 14
22 26 23 18 16 18 16 17 18 19 20 22 24 35 39 25 24 22 22 21 21 19 20 19 20 20 21 22 23 24 25 25 25 27 23 25 25 23 20 20 18 17 15
22 18 21 20 18 19 19 18 18 19 20 22 22 25 39 24 21 22 20 19 21 21 21 19 19 20 22 22 24 23 23 25 24 26 24 25 27 21 21 21 19 18 19
22 17 18 21 22 23 20 19 20 21 22 22 22 21 22 22 20 19 20 20 19 20 22 21 19 21 22 23 23 25 26 28 29 28 24 25 22 22 22 21 22 21 19
22 22 21 21 25 23 20 21 22 22 24 23 24 22 22 21 19 20 21 21 19 18 20 22 21 20 20 21 22 23 24 25 26 26 22 22 22 21 17 17 15 21 19
22 19 17 18 21 25 23 22 22 21 24 26 24 25 22 21 19 19 19 19 20 19 19 20 20 21 20 20 21 22 23 24 25 24 21 18 19 20 16 17 15 15 19
22 17 19 20 21 21 25 23 22 22 23 24 25 25 23 22 20 20 19 22 22 24 22 22 21 21 21 21 22 23 23 24 24 22 21 19 19 18 18 17 17 16 16
Wind_Direction_500mb
303 308 321 323 323 322 321 318 313 309 311 305 290 285 286 282 287 298 296 293 290 288 287 284 283 283 281 279 276 272 269 268 270 276 274 270 267 262 260 258 255 255 256
315 319 320 316 317 316 315 314 314 308 309 310 304 298 307 310 308 303 300 296 293 291 289 290 288 286 285 283 277 272 269 268 271 277 275 275 272 268 265 262 260 259 260
309 316 315 309 312 311 316 319 320 317 317 315 312 311 311 308 306 302 298 296 291 288 289 289 288 288 285 281 277 276 273 272 273 273 274 271 270 268 268 265 263 263 259
308 310 313 310 314 318 316 315 313 313 312 311 310 308 307 307 305 301 296 299 298 292 289 284 283 282 281 281 277 276 276 277 274 273 272 271 268 266 265 267 268 265 265
303 309 310 305 311 313 312 313 314 312 312 312 311 309 308 308 304 300 299 303 302 296 290 286 284 280 274 274 278 278 276 275 272 272 272 271 269 267 264 265 268 269 267
299 303 302 298 302 308 311 314 314 313 313 312 311 309 309 308 304 303 299 300 303 298 292 287 284 283 283 284 283 282 281 274 270 269 271 274 274 276 276 275 277 276 274
295 296 295 289 293 302 309 314 314 314 312 311 309 308 308 308 305 300 297 299 301 297 294 290 286 280 281 282 280 280 275 277 276 266 265 263 265 265 268 269 268 268 267
295 291 290 283 293 296 307 312 315 313 312 310 308 308 307 307 306 301 302 308 303 297 293 289 287 284 282 283 283 279 277 274 270 269 265 267 266 266 262 262 266 268 266
300 304 303 297 285 297 308 314 313 313 312 311 308 308 304 302 304 303 310 313 306 299 297 292 289 286 281 276 281 278 278 276 274 273 270 267 266 264 262 263 260 267 267
303 303 298 291 294 299 307 313 313 313 313 311 302 306 309 312 308 311 313 315 308 309 305 299 294 291 285 284 281 280 279 278 281 276 275 276 275 263 261 252 253 256 259
291 296 295 298 299 303 308 311 314 315 316 310 313 313 317 309 311 310 312 316 310 309 306 303 300 289 283 273 273 276 278 276 274 278 275 272 267 261 257 262 253 254 255
293 294 297 300 301 306 307 312 316 316 315 314 314 320 316 317 315 314 314 316 313 312 308 304 296 290 296 294 291 285 277 278 283 287 284 278 272 268 259 256 257 260 260
307 307 302 300 304 305 310 312 315 317 317 316 320 318 319 319 321 317 313 318 323 321 311 302 309 306 314 319 308 303 304 309 293 289 286 284 280 274 266 265 261 257 255
303 300 301 302 302 307 310 313 314 317 316 321 320 319 319 322 325 318 325 327 330 324 325 331 317 326 338 341 331 319 310 297 314 316 304 302 307 301 295 293 284 273 267
304 302 303 301 303 305 311 314 313 309 311 325 325 324 322 323 319 322 326 330 329 334 346 333 341 353 2 355 352 351 343 327 326 328 331 325 322 315 315 302 300 284 269
302 306 298 302 301 308 310 314 316 315 322 331 332 332 332 321 321 327 331 334 336 343 352 352 357 4 6 1 1 2 0 352 340 338 341 334 329 328 343 339 310 321 294
306 305 304 304 302 300 307 312 317 320 329 329 328 331 332 335 331 332 337 343 342 348 358 358 1 5 3 360 359 0 357 356 358 350 342 341 340 353 351 342 340 334 309
313 310 301 289 283 288 297 303 317 320 329 325 325 327 326 333 342 342 342 355 348 352 358 1 357 357 360 359 354 358 360 357 0 3 357 353 356 11 354 359 2 354 344
309 303 285 275 280 300 312 312 317 319 323 324 328 325 318 335 339 343 346 353 354 354 357 355 354 354 355 357 358 1 2 356 1 12 8 6 11 12 1 4 9 5 9
297 300 299 272 290 303 304 302 307 317 322 321 324 321 330 343 342 342 346 349 354 352 351 351 353 351 352 356 0 4 5 360 1 8 21 17 13 11 7 1 4 10 0
289 283 282 279 278 286 298 301 300 309 320 321 319 313 328 353 338 338 344 342 350 352 352 353 354 354 352 357 358 4 5 1 3 3 15 20 15 11 15 4 6 3 352
286 275 272 271 277 288 292 292 292 306 312 314 314 318 327 343 329 333 334 335 347 357 1 2 1 1 360 6 4 4 2 358 1 1 11 20 8 9 15 7 10 10 2
284 274 267 271 278 289 304 298 291 298 303 308 310 312 313 313 317 321 321 329 336 349 357 1 3 4 5 8 11 10 10 7 6 3 10 6 6 2 9 3 1 3 5
272 279 272 270 278 292 298 298 292 293 302 306 308 306 306 304 306 308 319 321 327 332 346 350 353 354 355 358 2 2 2 1 1 4 1 360 351 359 6 357 11 353 358
288 285 270 270 275 285 289 301 297 290 299 302 305 302 300 300 299 300 301 307 311 321 328 335 340 343 345 346 350 350 352 352 352 354 354 359 351 352 359 351 10 7 348
277 271 263 265 270 278 285 291 298 293 290 291 295 302 301 298 293 295 298 305 313 315 317 324 325 329 331 334 337 340 343 346 347 347 347 351 352 353 353 352 357 1 356
Wind_Speed_850mb
28 31 36 32 34 36 40 41 41 43 42 44 49 45 42 48 55 47 34 37 39 35 35 36 37 35 37 37 37 39 42 43 48 47 41 38 38 40 42 41 39 39 41
25 31 34 33 36 39 38 40 39 37 35 39 46 52 49 40 38 40 39 36 37 38 39 41 43 44 45 43 43 43 45 43 46 51 47 46 44 42 43 44 44 42 43
27 30 33 34 36 33 34 35 35 35 39 41 44 43 45 46 45 43 43 43 41 43 46 48 48 47 47 44 42 43 41 42 43 48 50 47 48 47 47 46 47 47 47
32 32 36 33 28 30 32 33 37 38 41 42 41 42 40 42 44 44 35 39 46 48 48 47 46 46 47 45 43 42 42 43 45 50 54 54 52 50 50 51 52 50 50
38 39 38 29 29 32 33 36 38 39 40 39 40 41 42 43 43 41 46 46 45 48 51 52 53 50 52 58 58 58 50 47 48 52 56 57 55 50 50 48 49 47 46
39 42 38 34 33 33 34 36 39 39 39 40 43 44 43 42 49 55 59 62 55 51 51 53 54 54 52 49 46 53 61 50 49 51 57 57 51 48 43 45 43 43 47
44 43 41 36 33 33 34 38 39 41 42 44 45 43 42 43 51 59 69 71 55 52 51 52 52 51 52 50 50 51 46 47 51 49 56 56 53 49 46 45 45 44 44
47 45 42 34 37 35 36 40 41 43 44 45 43 41 43 45 55 66 72 65 50 50 50 50 50 50 49 50 43 44 48 47 44 45 48 50 48 46 46 49 50 50 47
49 44 36 40 36 36 38 41 43 45 46 45 40 43 49 52 53 60 65 53 46 48 45 44 45 48 50 56 50 47 47 45 43 48 51 56 58 57 58 53 51 44 48
42 40 38 34 36 34 39 43 44 47 46 44 43 47 51 52 48 55 54 54 49 46 44 45 45 46 46 42 44 46 47 41 40 46 44 44 40 45 49 59 56 60 61
32 30 35 36 34 35 39 43 46 47 45 41 55 52 47 42 48 47 51 50 46 52 48 46 42 42 37 35 39 47 49 52 52 47 45 44 44 48 50 46 53 57 62
25 30 35 35 32 36 40 43 44 45 37 41 47 49 43 46 40 43 50 48 49 50 45 40 37 37 48 53 49 39 38 41 34 29 32 33 33 32 36 42 45 52 57
29 33 34 32 33 35 37 42 43 36 35 38 41 45 44 44 41 43 50 49 48 40 37 41 37 38 40 22 24 29 17 14 22 25 24 25 26 28 31 37 43 45 50
36 34 34 31 32 32 34 35 32 32 32 33 38 38 41 41 40 43 48 49 44 41 37 24 32 27 18 21 22 16 14 16 19 19 22 22 20 19 24 29 30 30 35
31 31 29 25 26 31 30 27 29 27 41 47 36 35 38 40 40 46 45 45 41 39 26 26 24 23 21 22 20 17 14 15 16 19 19 20 19 17 17 19 19 19 24
28 26 24 26 25 24 23 24 33 37 42 48 45 47 53 34 39 39 40 37 33 28 21 24 25 26 28 27 26 24 22 22 20 19 18 19 20 14 18 16 15 13 15
32 25 22 22 20 17 21 25 26 26 37 43 44 52 56 52 36 34 35 29 28 23 21 24 27 31 30 29 30 28 27 28 25 21 19 20 19 16 15 12 12 13 15
32 23 22 17 17 18 21 21 20 23 27 27 36 44 47 51 41 34 33 24 23 23 22 26 28 27 27 26 28 30 29 28 26 25 23 19 18 17 18 16 14 17 12
28 19 22 17 19 21 20 21 20 22 24 27 29 28 36 35 36 36 32 22 23 24 24 23 25 25 25 25 26 26 30 29 27 23 23 23 21 18 18 19 16 15 12
21 32 18 14 16 19 20 19 17 20 21 24 26 29 30 29 26 25 26 24 21 20 21 21 22 23 24 24 25 24 27 29 30 26 24 26 24 20 19 18 19 17 14
22 26 23 18 16 18 16 17 18 19 20 22 24 35 39 25 24 22 22 21 21 19 20 19 20 20 21 22 23 24 25 25 25 27 23 25 25 23 20 20 18 17 15
22 18 21 20 18 19 19 18 18 19 20 22 22 25 39 24 21 22 20 19 21 21 21 19 19 20 22 22 24 23 23 25 24 26 24 25 27 21 21 21 19 18 19
22 17 18 21 22 23 20 19 20 21 22 22 22 21 22 22 20 19 20 20 19 20 22 21 19 21 22 23 23 25 26 28 29 28 24 25 22 22 22 21 22 21 19
22 22 21 21 25 23 20 21 22 22 24 23 24 22 22 21 19 20 21 21 19 18 20 22 21 20 20 21 22 23 24 25 26 26 22 22 22 21 17 17 15 21 19
22 19 17 18 21 25 23 22 22 21 24 26 24 25 22 21 19 19 19 19 20 19 19 20 20 21 20 20 21 22 23 24 25 24 21 18 19 20 16 17 15 15 19
22 17 19 20 21 21 25 23 22 22 23 24 25 25 23 22 20 20 19 22 22 24 22 22 21 21 21 21 22 23 23 24 24 22 21 19 19 18 18 17 17 16 16
Wind_Direction_850mb
303 308 321 323 323 322 321 318 313 309 311 305 290 285 286 282 287 298 296 293 290 288 287 284 283 283 281 279 276 272 269 268 270 276 274 270 267 262 260 258 255 255 256
315 319 320 316 317 316 315 314 314 308 309 310 304 298 307 310 308 303 300 296 293 291 289 290 288 286 285 283 277 272 269 268 271 277 275 275 272 268 265 262 260 259 260
309 316 315 309 312 311 316 319 320 317 317 315 312 311 311 308 306 302 298 296 291 288 289 289 288 288 285 281 277 276 273 272 273 273 274 271 270 268 268 265 263 263 259
308 310 313 310 314 318 316 315 313 313 312 311 310 308 307 307 305 301 296 299 298 292 289 284 283 282 281 281 277 276 276 277 274 273 272 271 268 266 265 267 268 265 265
303 309 310 305 311 313 312 313 314 312 312 312 311 309 308 308 304 300 299 303 302 296 290 286 284 280 274 274 278 278 276 275 272 272 272 271 269 267 264 265 268 269 267
299 303 302 298 302 308 311 314 314 313 313 312 311 309 309 308 304 303 299 300 303 298 292 287 284 283 283 284 283 282 281 274 270 269 271 274 274 276 276 275 277 276 274
295 296 295 289 293 302 309 314 314 314 312 311 309 308 308 308 305 300 297 299 301 297 294 290 286 280 281 282 280 280 275 277 276 266 265 263 265 265 268 269 268 268 267
295 291 290 283 293 296 307 312 315 313 312 310 308 308 307 307 306 301 302 308 303 297 293 289 287 284 282 283 283 279 277 274 270 269 265 267 266 266 262 262 266 268 266
300 304 303 297 285 297 308 314 313 313 312 311 308 308 304 302 304 303 310 313 306 299 297 292 289 286 281 276 281 278 278 276 274 273 270 267 266 264 262 263 260 267 267
303 303 298 291 294 299 307 313 313 313 313 311 302 306 309 312 308 311 313 315 308 309 305 299 294 291 285 284 281 280 279 278 281 276 275 276 275 263 261 252 253 256 259
291 296 295 298 299 303 308 311 314 315 316 310 313 313 317 309 311 310 312 316 310 309 306 303 300 289 283 273 273 276 278 276 274 278 275 272 267 261 257 262 253 254 255
293 294 297 300 301 306 307 312 316 316 315 314 314 320 316 317 315 314 314 316 313 312 308 304 296 290 296 294 291 285 277 278 283 287 284 278 272 268 259 256 257 260 260
307 307 302 300 304 305 310 312 315 317 317 316 320 318 319 319 321 317 313 318 323 321 311 302 309 306 314 319 308 303 304 309 293 289 286 284 280 274 266 265 261 257 255
303 300 301 302 302 307 310 313 314 317 316 321 320 319 319 322 325 318 325 327 330 324 325 331 317 326 338 341 331 319 310 297 314 316 304 302 307 301 295 293 284 273 267
304 302 303 301 303 305 311 314 313 309 311 325 325 324 322 323 319 322 326 330 329 334 346 333 341 353 2 355 352 351 343 327 326 328 331 325 322 315 315 302 300 284 269
302 306 298 302 301 308 310 314 316 315 322 331 332 332 332 321 321 327 331 334 336 343 352 352 357 4 6 1 1 2 0 352 340 338 341 334 329 328 343 339 310 321 294
306 305 304 304 302 300 307 312 317 320 329 329 328 331 332 335 331 332 337 343 342 348 358 358 1 5 3 360 359 0 357 356 358 350 342 341 340 353 351 342 340 334 309
313 310 301 289 283 288 297 303 317 320 329 325 325 327 326 333 342 342 342 355 348 352 358 1 357 357 360 359 354 358 360 357 0 3 357 353 356 11 354 359 2 354 344
309 303 285 275 280 300 312 312 317 319 323 324 328 325 318 335 339 343 346 353 354 354 357 355 354 354 355 357 358 1 2 356 1 12 8 6 11 12 1 4 9 5 9
297 300 299 272 290 303 304 302 307 317 322 321 324 321 330 343 342 342 346 349 354 352 351 351 353 351 352 356 0 4 5 360 1 8 21 17 13 11 7 1 4 10 0
289 283 282 279 278 286 298 301 300 309 320 321 319 313 328 353 338 338 344 342 350 352 352 353 354 354 352 357 358 4 5 1 3 3 15 20 15 11 15 4 6 3 352
286 275 272 271 277 288 292 292 292 306 312 314 314 318 327 343 329 333 334 335 347 357 1 2 1 1 360 6 4 4 2 358 1 1 11 20 8 9 15 7 10 10 2
284 274 267 271 278 289 304 298 291 298 303 308 310 312 313 313 317 321 321 329 336 349 357 1 3 4 5 8 11 10 10 7 6 3 10 6 6 2 9 3 1 3 5
272 279 272 270 278 292 298 298 292 293 302 306 308 306 306 304 306 308 319 321 327 332 346 350 353 354 355 358 2 2 2 1 1 4 1 360 351 359 6 357 11 353 358
288 285 270 270 275 285 289 301 297 290 299 302 305 302 300 300 299 300 301 307 311 321 328 335 340 343 345 346 350 350 352 352 352 354 354 359 351 352 359 351 10 7 348
277 271 263 265 270 278 285 291 298 293 290 291 295 302 301 298 293 295 298 305 313 315 317 324 325 329 331 334 337 340 343 346 347 347 347 351 352 353 353 352 357 1 356